Simultaneous Nadir Overpasses (SNOs) Predictions

Prediction of SNOs between NPP and TERRA Satellite Orbit:

Table of predicted SNOs for the next 14.0 days since TLE Epoch: 6/11/2022
Index Date (NPP) Time (NPP) Lat,Lon (NPP) SZA (NPP ) Date (TERRA) Time (TERRA) Lat,Lon (TERRA) SZA (TERRA ) Distance(km) Time Diff (sec)
1 06/12/2022 03:02:38 69.67, 131.31 46.45 06/12/2022 03:03:46 69.66, 131.35 46.43 1.98 68
2 06/12/2022 03:53:19 -69.53, -61.17 133.70 06/12/2022 03:53:16 -69.54, -61.17 133.69 1.82 3
3 06/12/2022 04:43:59 69.19, 106.62 45.95 06/12/2022 04:42:47 69.21, 106.04 45.99 22.98 72
4 06/14/2022 19:19:35 69.58,-112.81 46.22 06/14/2022 19:20:12 69.60,-112.85 46.23 2.95 37
5 06/14/2022 20:10:17 -69.49, 54.64 133.88 06/14/2022 20:09:42 -69.49, 54.63 133.88 0.46 35
6 06/17/2022 10:45:55 -69.98,-164.95 133.46 06/17/2022 10:47:07 -69.87,-164.26 133.60 29.35 72
7 06/17/2022 11:36:33 69.55, 3.00 46.09 06/17/2022 11:36:38 69.53, 2.93 46.08 3.09 5
8 06/17/2022 12:27:15 -69.46, 170.45 134.01 06/17/2022 12:26:07 -69.48, 170.49 133.98 3.30 68
9 06/20/2022 03:02:47 -69.63, -48.68 133.87 06/20/2022 03:03:36 -69.63, -48.72 133.88 1.79 49
10 06/20/2022 03:53:31 69.52, 118.80 46.02 06/20/2022 03:53:03 69.51, 118.77 46.01 1.64 28
11 06/20/2022 04:43:55 -68.46, -72.44 135.07 06/20/2022 04:42:49 -68.52, -74.85 134.95 98.83 66
12 06/22/2022 18:29:13 70.29,-101.23 46.83 06/22/2022 18:30:22 70.14, -99.77 46.62 57.47 69
13 06/22/2022 19:19:44 -69.61, 67.12 133.89 06/22/2022 19:20:00 -69.59, 67.11 133.91 1.71 16
14 06/22/2022 20:10:28 69.50,-125.41 46.00 06/22/2022 20:09:27 69.47,-125.40 45.98 2.71 61



Historial Predications of SNOs between NPP and TERRA
